Home   Weather   Troisdorf   Past weeks

Flag for Germany Past Weather in Troisdorf, North Rhine-Westphalia, Germany — Yesterday and Last 2 Weeks

50 °F


Feels Like: 49 °F
Forecast: 48 / 59 °F
Wind: 3 mph from South

Location: Koeln / Bonn

Current Time: Oct 28, 2016 at 6:33:29 AM

Latest Report: Oct 28, 2016 at 5:50 AM

Visibility: N/A

Pressure: 30.48 "Hg

Humidity: 94%

Dew Point: 48 °F

Location of TroisdorfLocation

Past Weather in Troisdorf — Graph


Troisdorf Temperature Yesterday

Maximum temperature yesterday: 59 °F (at 1:50 PM)
Minimum temperature yesterday: 45 °F (at 1:20 AM)
Average temperature yesterday: 51 °F

High & Low Weather Summary for the Past Weeks

High68 °F (Oct 16, 3:50 PM)100% (Oct 15, 12:20 AM)30.51 "Hg (Oct 15, 12:20 AM)
Low36 °F (Oct 23, 2:20 AM)49% (Oct 16, 3:20 PM)29.68 "Hg (Oct 14, 6:20 PM)
Average49 °F87%30.05 "Hg
* Reported Oct 13 5:20 AM — Oct 28 5:20 AM, Troisdorf, Weather by CustomWeather, © 2016

Note: Actual official high and low records may vary slightly from our data, if they occured in-between our weather recording intervals... More about our weather records


Troisdorf Weather History for the Previous 24 Hours

Scroll right to see more
Time TempWeatherWind HumidityBarometerVisibility
5:20 AM
Fri, Oct 28
50 °FPassing clouds.7 mph94%30.48 "HgN/A
4:50 AM50 °FPassing clouds.9 mph94%30.48 "HgN/A
4:20 AM50 °FPassing clouds.3 mph94%30.51 "HgN/A
3:50 AM50 °FPassing clouds.6 mph94%30.48 "HgN/A
3:20 AM50 °FPartly cloudy.5 mph94%30.51 "HgN/A
2:50 AM50 °FPassing clouds.3 mph94%30.51 "HgN/A
2:20 AM50 °FPassing clouds.8 mph94%30.51 "HgN/A
1:50 AM50 °FPartly cloudy.2 mph94%30.51 "HgN/A
1:20 AM50 °FPartly cloudy.5 mph94%30.51 "HgN/A
12:50 AM50 °FPartly cloudy.7 mph94%30.51 "HgN/A
12:20 AM50 °FPartly cloudy.1 mph94%30.51 "HgN/A
11:50 PM
Thu, Oct 27
50 °FPartly cloudy.5 mph94%30.51 "HgN/A
11:20 PM50 °FPartly cloudy.5 mph94%30.51 "HgN/A
10:50 PM50 °FPartly cloudy.2 mph94%30.51 "HgN/A
10:20 PM50 °FPartly cloudy.2 mph94%30.51 "HgN/A
9:50 PM50 °FFog.6 mph94%30.51 "HgN/A
9:20 PM50 °FFog.5 mph94%30.51 "HgN/A
8:50 PM50 °FFog.2 mph94%30.51 "HgN/A
8:20 PM50 °FPassing clouds.7 mph94%30.51 "HgN/A
7:50 PM50 °FFog.2 mph94%30.51 "HgN/A
7:20 PM50 °FPassing clouds.1 mph94%30.51 "HgN/A
6:50 PM52 °FPartly cloudy.2 mph94%30.51 "HgN/A
6:20 PM54 °FPassing clouds.8 mph88%30.51 "HgN/A
5:50 PM55 °FBroken clouds.8 mph88%30.51 "HgN/A
5:20 PM57 °FScattered clouds.3 mph77%30.51 "HgN/A
4:50 PM57 °FPartly sunny.5 mph77%30.51 "HgN/A
4:20 PM57 °FPartly sunny.5 mph77%30.51 "HgN/A
3:50 PM57 °FPartly sunny.2 mph77%30.51 "HgN/A
3:20 PM57 °FBroken clouds.1 mph77%30.51 "HgN/A
2:50 PM57 °FBroken clouds.2 mph77%30.51 "HgN/A
2:20 PM57 °FScattered clouds.3 mph72%30.51 "HgN/A
1:50 PM59 °FScattered clouds.5 mph68%30.51 "HgN/A
1:20 PM55 °FPartly sunny.5 mph77%30.51 "HgN/A
12:50 PM54 °FPartly sunny.6 mph77%30.51 "HgN/A
12:20 PM52 °FPartly sunny.6 mph88%30.51 "HgN/A
11:50 AM52 °FDrizzle. Partly sunny.6 mph82%30.51 "HgN/A
11:20 AM52 °FPartly sunny.6 mph82%30.51 "HgN/A
10:50 AM50 °FPartly sunny.5 mph88%30.51 "HgN/A
10:20 AM50 °FBroken clouds.7 mph88%30.51 "HgN/A
9:50 AM50 °FPartly sunny.8 mph88%30.51 "HgN/A
9:20 AM50 °FPartly sunny.3 mph88%30.51 "Hg5 mi
8:50 AM48 °FPartly sunny.3 mph87%30.48 "Hg4 mi
8:20 AM48 °FOvercast.1 mph87%30.48 "Hg4 mi
7:50 AM48 °FOvercast.3 mph87%30.48 "Hg4 mi
7:20 AM48 °FOvercast.3 mph87%30.48 "Hg4 mi
6:50 AM46 °FPassing clouds.5 mph93%30.48 "Hg4 mi
6:20 AM48 °FPassing clouds.6 mph87%30.45 "Hg4 mi
Weather by CustomWeather, © 2016

See weather overviewHow to use our weather pages